星链-31092 (STARLINK-31092 )

导读

STARLINK-31092是美国SpaceX公司于2023年12月23日发射的星链卫星,属于全球低轨宽带通信星座计划的组成部分,运行于约1150公里近地轨道。卫星采用平板设计,搭载Ku/Ka波段通信载荷与光学星间链路,以氪基霍尔推进器实现轨道机动与离轨控制,具备自主避撞能力。它旨在为全球提供覆盖偏远地区的高速互联网服务,服役寿命约5-7年,退役后会再入大气层焚毁。

Basic Information
目录编号:
58628
目录名称:
STARLINK-31092
国际标识:
2023-203L
轨道中心:
EARTH
卫星名称:
星链-31092
卫星全名:
星链-31092 (STARLINK-31092 )
卫星状态:
在轨 (已飞行986 天)
发射日期:
2023-12-23 UTC
国别 :
美国 (US)
星等 :
--
Orbit Information
数据来源 国际轨道数据 AOE轨道数据
星历时间 2026-09-04T09:43:05+0800
8小时前
查看轨道信息
2026-08-30T20:00:00+0800
4天前
查看轨道信息
半长轴 6861.19km 6861.168km
偏心率 0.000111 0.000159
轨道倾角 43.001° 43.005°
近地点辐角 276.855° 238.898°
升交点赤经 139.594° 165.417°
平近点角 83.218° 151.320°
近地点 482.291km 481.94km
远地点 483.815km 484.122km
周期 94.267分钟 94.266分钟
每日圈数 15.275789 15.275863
Detailed Information
固有亮度:
5
最大亮度:
0.3
卫星平台:
Starlink v2.0 mini
覆盖范围:
全球
运营商:
太空探索技术公司
运营商所在国:
美国
制造商(研发单位):
太空探索技术公司
制造商所在国:
美国
使用方式:
暂无
Satellite Introduction
星链(Starlink)计划是由太空探索技术公司(SpaceX)提出的一个巨型低轨卫星互联网星座项目,计划在2019年至2024年间在太空搭建由约1.2万颗卫星组成的“星链”网络,其中1584颗将部署在地球上空550千米处的近地轨道,并从2020年开始工作。该卫星仍在工作。
2D Orbit Map
3D Orbit Map
Orbit Altitude Analysis Chart
Orbit Inclination Analysis Chart
Orbit Comprehensive Analysis Chart
View Comprehensive Chart